Weather in Prechistoye

Russia / Smolensk Oblast     55°30′31″N   32°21′44″E
temp.,
°C
wind,
m/s
gust,
m/s
humid.,
%
clouds,
%
prec.,
mm/h
press.,
hPa
HPBL,
m
18 may, tue
tue1800:00+18ese413828 0.1 1003477
03:00+17ese41188100 0.1 1003402
06:00+16se51296100 1.1 1003402
09:00+19sse4108898 1.3 1003684
12:00+23sse4856100 0.0 10041379
15:00+20sse3780100 1.3 1003436
18:00+20sse2986100 1.8 1002336
21:00+17ssw139196 2.8 100265
19 may, wed
wed1900:00+15nw1196100 2.4 100117
03:00+14se4109769 2.4 1001344
06:00+13se3998100 0.1 1001310
09:00+14se41193100 0.2 1002448
12:00+15sse399199 0.6 1003489
15:00+19sse587845 2.4 10041228
18:00+18s377898 0.8 1004980
21:00+15sse1188100 1.1 100516
20 may, thu
thu2000:00+12wnw1195100 0.0 100510
03:00+13nnw2498100 1.0 1003111
06:00+13nne2799100 1.2 1002348
09:00+13nne3798100 3.3 1001425
12:00+13e4794100 1.9 1001645
15:00+13ne1394100 3.1 1001320
18:00+11nw5897100 2.3 1002540
21:00+9nw51296100 3.1 1005758
21 may, fri
fri2100:00+9wnw51294100 1.1 1007776
03:00+7wnw31296100 1.1 1009486
06:00+7w3109729 0.0 1011366
09:00+11w46735 0.0 1013752
12:00+15wsw57485 0.0 10131823
15:00+16wsw68445 0.0 10141955
18:00+16wsw45511 0.0 10151478
21:00+10sw26800 0.0 1017110
22 may, sat
sat2200:00+7wsw22855 0.0 101827
03:00+6wsw11880 0.0 101810
06:00+8se118134 0.0 101923
09:00+14sse235399 0.0 1018628
12:00+17s34438 0.0 10171590
15:00+19ssw343860 0.0 10172035
18:00+18ssw255298 0.0 10161647
21:00+13se228096 0.0 101521